When you browse on this site, cookies collect data to enhance your experience and personalize the content and advertising you see.
Visit our Privacy Policy to learn more. By continuing to use the site, you agree to this use of cookies and data.
  • In Hungary
  • List of Countries
  • For 7 days
  • Water Temperature
  • Satellite Maps
  • Weather Map
  • News
  • Weather Widgets
  • user-avatar
    Login

    Hourly Weather Mikomeseng

    Today, 17 December, Monday

    Time Temperature Precipitation Wind Pressure Humidity
    00:00 +24°C° 0 mm 1 mps 714 mmHg 95%
    01:00 +21°C° 0 mm 0 mps 714 mmHg 96%
    02:00 +21°C° 0 mm 0 mps 714 mmHg 96%
    03:00 +21°C° 0 mm 0 mps 714 mmHg 97%
    04:00 +21°C° 0 mm 0 mps 714 mmHg 97%
    05:00 +21°C° 0.1 mm 0 mps 714 mmHg 96%
    06:00 +21°C° 0.1 mm 0 mps 714 mmHg 95%
    07:00 +21°C° 0.1 mm 0 mps 714 mmHg 95%
    08:00 +23°C° 0.1 mm 0 mps 715 mmHg 86%
    09:00 +27°C° 0.1 mm 1 mps 715 mmHg 77%
    10:00 +29°C° 0.1 mm 1 mps 715 mmHg 68%
    11:00 +30°C° 0.2 mm 1 mps 715 mmHg 64%
    12:00 +31°C° 0.2 mm 1 mps 714 mmHg 60%
    13:00 +31°C° 0.2 mm 1 mps 714 mmHg 57%
    14:00 +31°C° 0.3 mm 1 mps 713 mmHg 60%
    15:00 +30°C° 0.3 mm 1 mps 713 mmHg 63%
    16:00 +30°C° 0.3 mm 1 mps 712 mmHg 67%
    17:00 +28°C° 0.4 mm 1 mps 713 mmHg 74%
    18:00 +26°C° 0.4 mm 1 mps 713 mmHg 81%
    19:00 +25°C° 0.4 mm 1 mps 713 mmHg 88%
    20:00 +24°C° 0 mm 1 mps 713 mmHg 90%
    21:00 +24°C° 0 mm 1 mps 714 mmHg 91%
    22:00 +24°C° 0 mm 1 mps 714 mmHg 93%
    23:00 +23°C° 0 mm 1 mps 714 mmHg 93%

    Tomorrow, 18 December, Tuesday

    Time Temperature Precipitation Wind Pressure Humidity
    00:00 +23°C° 0 mm 1 mps 714 mmHg 94%
    01:00 +23°C° 0 mm 1 mps 713 mmHg 94%
    02:00 +23°C° 0 mm 1 mps 713 mmHg 95%
    03:00 +22°C° 0 mm 1 mps 713 mmHg 96%
    04:00 +22°C° 0 mm 1 mps 713 mmHg 97%
    05:00 +20°C° 0 mm 0 mps 713 mmHg 96%
    06:00 +21°C° 0 mm 0 mps 714 mmHg 95%
    07:00 +21°C° 0 mm 0 mps 714 mmHg 95%
    08:00 +23°C° 0 mm 0 mps 714 mmHg 85%
    09:00 +25°C° 0 mm 0 mps 715 mmHg 74%
    10:00 +29°C° 0 mm 1 mps 715 mmHg 64%
    11:00 +31°C° 0 mm 1 mps 715 mmHg 58%
    12:00 +32°C° 0 mm 1 mps 714 mmHg 53%
    13:00 +33°C° 0 mm 1 mps 714 mmHg 47%
    14:00 +32°C° 0 mm 1 mps 713 mmHg 50%
    15:00 +32°C° 0 mm 2 mps 713 mmHg 53%
    16:00 +31°C° 0 mm 2 mps 712 mmHg 55%
    17:00 +29°C° 0.2 mm 2 mps 712 mmHg 65%
    18:00 +27°C° 0.2 mm 2 mps 712 mmHg 75%
    19:00 +25°C° 0.2 mm 2 mps 713 mmHg 84%
    20:00 +25°C° 0.1 mm 1 mps 713 mmHg 87%
    21:00 +24°C° 0.1 mm 1 mps 714 mmHg 89%
    22:00 +24°C° 0.1 mm 1 mps 714 mmHg 92%
    23:00 +24°C° 0 mm 1 mps 714 mmHg 93%

    Day after tomorrow, 19 December, Wednesday

    Time Temperature Precipitation Wind Pressure Humidity
    00:00 +23°C° 0 mm 1 mps 714 mmHg 94%
    01:00 +23°C° 0 mm 1 mps 713 mmHg 95%
    02:00 +23°C° 0 mm 1 mps 713 mmHg 95%
    03:00 +23°C° 0 mm 1 mps 713 mmHg 96%
    04:00 +20°C° 0 mm 0 mps 713 mmHg 97%
    05:00 +21°C° 0 mm 0 mps 713 mmHg 96%
    06:00 +21°C° 0 mm 0 mps 714 mmHg 95%
    07:00 +21°C° 0 mm 0 mps 714 mmHg 94%
    08:00 +23°C° 0 mm 0 mps 715 mmHg 84%
    09:00 +27°C° 0 mm 1 mps 715 mmHg 75%
    10:00 +29°C° 0 mm 1 mps 716 mmHg 65%
    11:00 +30°C° 0 mm 1 mps 715 mmHg 61%
    12:00 +31°C° 0 mm 1 mps 715 mmHg 57%
    13:00 +31°C° 0 mm 2 mps 714 mmHg 53%
    14:00 +31°C° 0.2 mm 2 mps 713 mmHg 56%
    15:00 +30°C° 0.2 mm 2 mps 713 mmHg 59%
    16:00 +30°C° 0.2 mm 2 mps 712 mmHg 63%
    17:00 +28°C° 0.4 mm 2 mps 712 mmHg 71%
    18:00 +26°C° 0.4 mm 1 mps 713 mmHg 79%
    19:00 +24°C° 0.4 mm 1 mps 713 mmHg 87%
    20:00 +24°C° 0.3 mm 1 mps 713 mmHg 89%
    21:00 +24°C° 0.3 mm 1 mps 714 mmHg 91%
    22:00 +23°C° 0.3 mm 1 mps 714 mmHg 94%
    23:00 +23°C° 0 mm 1 mps 714 mmHg 94%

    20 December, Thursday

    Time Temperature Precipitation Wind Pressure Humidity
    00:00 +23°C° 0 mm 1 mps 714 mmHg 95%
    01:00 +23°C° 0 mm 1 mps 713 mmHg 96%
    02:00 +22°C° 0 mm 1 mps 713 mmHg 96%
    03:00 +22°C° 0 mm 1 mps 713 mmHg 97%
    04:00 +20°C° 0 mm 0 mps 712 mmHg 97%
    05:00 +20°C° 0 mm 0 mps 713 mmHg 97%
    06:00 +20°C° 0 mm 0 mps 713 mmHg 96%
    07:00 +20°C° 0 mm 0 mps 714 mmHg 95%
    08:00 +23°C° 0 mm 0 mps 714 mmHg 86%
    09:00 +25°C° 0 mm 0 mps 715 mmHg 76%
    10:00 +29°C° 0 mm 1 mps 716 mmHg 67%
    11:00 +29°C° 0.1 mm 1 mps 715 mmHg 63%
    12:00 +30°C° 0.1 mm 1 mps 714 mmHg 60%
    13:00 +31°C° 0.1 mm 1 mps 714 mmHg 56%
    14:00 +30°C° 0.1 mm 1 mps 713 mmHg 57%
    15:00 +30°C° 0.1 mm 1 mps 712 mmHg 58%
    16:00 +30°C° 0.1 mm 1 mps 712 mmHg 58%
    17:00 +28°C° 0.2 mm 1 mps 712 mmHg 67%
    18:00 +26°C° 0.2 mm 1 mps 712 mmHg 76%
    19:00 +25°C° 0.2 mm 1 mps 713 mmHg 85%
    20:00 +24°C° 0.1 mm 1 mps 713 mmHg 88%
    21:00 +24°C° 0.1 mm 1 mps 714 mmHg 90%
    22:00 +23°C° 0.1 mm 1 mps 714 mmHg 93%
    23:00 +23°C° 0 mm 1 mps 714 mmHg 93%

    21 December, Friday

    Time Temperature Precipitation Wind Pressure Humidity
    00:00 +23°C° 0 mm 1 mps 713 mmHg 94%
    01:00 +23°C° 0 mm 1 mps 713 mmHg 95%
    02:00 +22°C° 0 mm 1 mps 713 mmHg 96%
    03:00 +20°C° 0 mm 0 mps 712 mmHg 97%
    04:00 +20°C° 0 mm 0 mps 712 mmHg 97%
    05:00 +20°C° 0 mm 0 mps 713 mmHg 97%
    06:00 +20°C° 0 mm 0 mps 713 mmHg 96%
    07:00 +20°C° 0 mm 0 mps 714 mmHg 95%
    08:00 +23°C° 0 mm 0 mps 714 mmHg 85%
    09:00 +25°C° 0 mm 0 mps 715 mmHg 74%
    10:00 +27°C° 0 mm 0 mps 715 mmHg 64%
    11:00 +30°C° 0.1 mm 1 mps 715 mmHg 58%
    12:00 +32°C° 0.1 mm 1 mps 714 mmHg 53%
    13:00 +33°C° 0.1 mm 1 mps 713 mmHg 48%
    14:00 +32°C° 0.1 mm 1 mps 713 mmHg 52%
    15:00 +31°C° 0.1 mm 1 mps 712 mmHg 56%
    16:00 +30°C° 0.1 mm 1 mps 711 mmHg 59%
    17:00 +28°C° 0.1 mm 1 mps 711 mmHg 66%
    18:00 +27°C° 0.1 mm 1 mps 712 mmHg 73%
    19:00 +25°C° 0.1 mm 1 mps 712 mmHg 80%
    20:00 +25°C° 0 mm 1 mps 712 mmHg 83%
    21:00 +24°C° 0 mm 1 mps 713 mmHg 87%
    22:00 +24°C° 0 mm 1 mps 713 mmHg 91%
    23:00 +23°C° 0.1 mm 1 mps 713 mmHg 92%

    22 December, Saturday

    Time Temperature Precipitation Wind Pressure Humidity
    00:00 +23°C° 0.1 mm 1 mps 712 mmHg 93%
    01:00 +23°C° 0.1 mm 1 mps 712 mmHg 94%
    02:00 +23°C° 0 mm 1 mps 712 mmHg 95%
    03:00 +20°C° 0 mm 0 mps 712 mmHg 96%
    04:00 +20°C° 0 mm 0 mps 712 mmHg 97%
    05:00 +20°C° 0 mm 0 mps 712 mmHg 96%
    06:00 +21°C° 0 mm 0 mps 713 mmHg 95%
    07:00 +21°C° 0 mm 0 mps 713 mmHg 94%
    08:00 +23°C° 0 mm 0 mps 714 mmHg 85%
    09:00 +26°C° 0 mm 1 mps 714 mmHg 76%
    10:00 +28°C° 0 mm 1 mps 715 mmHg 67%
    11:00 +29°C° 0.1 mm 1 mps 714 mmHg 62%
    12:00 +31°C° 0.1 mm 1 mps 713 mmHg 56%
    13:00 +32°C° 0.1 mm 1 mps 713 mmHg 50%
    14:00 +31°C° 0.2 mm 1 mps 712 mmHg 53%
    15:00 +31°C° 0.2 mm 1 mps 712 mmHg 55%
    16:00 +30°C° 0.2 mm 1 mps 711 mmHg 58%
    17:00 +28°C° 0.2 mm 1 mps 711 mmHg 66%
    18:00 +27°C° 0.2 mm 1 mps 711 mmHg 74%
    19:00 +25°C° 0.2 mm 1 mps 712 mmHg 82%
    20:00 +24°C° 0.1 mm 1 mps 712 mmHg 85%
    21:00 +24°C° 0.1 mm 1 mps 712 mmHg 89%
    22:00 +23°C° 0.1 mm 1 mps 713 mmHg 92%
    23:00 +23°C° 0.1 mm 1 mps 712 mmHg 93%
    Show more